Year,Month,Day,Hour,Minute,Value (Times are PST for temperature in C)
2012,05,26,00,00,14.10
2012,05,26,00,05,14.10
2012,05,26,00,06,14.00
2012,05,26,00,07,14.00
2012,05,26,00,08,13.90
2012,05,26,00,09,13.80
2012,05,26,00,10,13.70
2012,05,26,00,11,13.60
2012,05,26,00,12,13.50
2012,05,26,00,13,13.40
2012,05,26,00,14,13.30
2012,05,26,00,15,13.20
2012,05,26,00,16,13.20
2012,05,26,00,17,13.10
2012,05,26,00,18,13.10
2012,05,26,00,19,13.00
2012,05,26,00,20,13.00
2012,05,26,00,21,12.90
2012,05,26,00,22,12.90
2012,05,26,00,23,13.00
2012,05,26,00,24,13.10
2012,05,26,00,25,13.10
2012,05,26,00,26,13.10
2012,05,26,00,27,13.10
2012,05,26,00,28,13.10
2012,05,26,00,29,13.10
2012,05,26,00,30,13.10
2012,05,26,00,31,13.00
2012,05,26,00,32,13.10
2012,05,26,00,33,13.20
2012,05,26,00,34,13.30
2012,05,26,00,35,13.40
2012,05,26,00,36,13.30
2012,05,26,00,37,13.30
2012,05,26,00,38,13.20
2012,05,26,00,39,13.20
2012,05,26,00,40,13.20
2012,05,26,00,41,13.10
2012,05,26,00,42,13.10
2012,05,26,00,43,13.00
2012,05,26,00,44,13.00
2012,05,26,00,45,13.00
2012,05,26,00,46,12.90
2012,05,26,00,47,12.90
2012,05,26,00,48,12.90
2012,05,26,00,49,12.90
2012,05,26,00,50,12.90
2012,05,26,00,51,13.00
2012,05,26,00,52,13.10
2012,05,26,00,53,13.20
2012,05,26,00,54,13.30
2012,05,26,00,55,13.40
2012,05,26,00,56,13.50
2012,05,26,00,57,13.60
2012,05,26,00,58,13.70
2012,05,26,00,59,13.70
2012,05,26,01,00,13.80
2012,05,26,01,01,13.90
2012,05,26,01,02,14.00
2012,05,26,01,03,14.10
2012,05,26,01,04,14.30
2012,05,26,01,05,14.40
2012,05,26,01,06,14.50
2012,05,26,01,07,14.50
2012,05,26,01,08,14.60
2012,05,26,01,09,14.60
2012,05,26,01,10,14.60
2012,05,26,01,11,14.70
2012,05,26,01,12,14.70
2012,05,26,01,13,14.70
2012,05,26,01,14,14.70
2012,05,26,01,15,14.60
2012,05,26,01,16,14.60
2012,05,26,01,17,14.50
2012,05,26,01,18,14.40
2012,05,26,01,19,14.40
2012,05,26,01,20,14.30
2012,05,26,01,21,14.20
2012,05,26,01,22,14.10
2012,05,26,01,23,14.00
2012,05,26,01,24,13.90
2012,05,26,01,25,13.70
2012,05,26,01,26,13.60
2012,05,26,01,27,13.50
2012,05,26,01,28,13.40
2012,05,26,01,29,13.30
2012,05,26,01,30,13.20
2012,05,26,01,31,13.10
2012,05,26,01,32,13.00
2012,05,26,01,33,12.90
2012,05,26,01,34,12.80
2012,05,26,01,35,12.70
2012,05,26,01,36,12.70
2012,05,26,01,37,12.80
2012,05,26,01,38,12.70
2012,05,26,01,39,12.70
2012,05,26,01,40,12.70
2012,05,26,01,41,12.70
2012,05,26,01,42,12.70
2012,05,26,01,43,12.60
2012,05,26,01,44,12.50
2012,05,26,01,45,12.50
2012,05,26,01,46,12.40
2012,05,26,01,47,12.40
2012,05,26,01,48,12.40
2012,05,26,01,49,12.40
2012,05,26,01,50,12.30
2012,05,26,01,51,12.30
2012,05,26,01,52,12.30
2012,05,26,01,53,12.30
2012,05,26,01,54,12.30
2012,05,26,01,55,12.20
2012,05,26,01,56,12.20
2012,05,26,01,57,12.20
2012,05,26,01,58,12.10
2012,05,26,01,59,12.10
2012,05,26,02,00,12.20
2012,05,26,02,01,12.20
2012,05,26,02,02,12.20
2012,05,26,02,03,12.20
2012,05,26,02,04,12.10
2012,05,26,02,05,12.10
2012,05,26,02,06,12.10
2012,05,26,02,07,12.10
2012,05,26,02,08,12.10
2012,05,26,02,09,12.10
2012,05,26,02,10,12.10
2012,05,26,02,11,12.00
2012,05,26,02,12,12.00
2012,05,26,02,13,11.90
2012,05,26,02,14,11.90
2012,05,26,02,15,11.90
2012,05,26,02,16,11.90
2012,05,26,02,17,11.90
2012,05,26,02,18,11.90
2012,05,26,02,19,11.90
2012,05,26,02,20,11.90
2012,05,26,02,21,11.90
2012,05,26,02,22,11.90
2012,05,26,02,23,11.90
2012,05,26,02,24,11.80
2012,05,26,02,25,11.80
2012,05,26,02,26,11.90
2012,05,26,02,27,11.90
2012,05,26,02,28,11.90
2012,05,26,02,29,11.90
2012,05,26,02,30,11.90
2012,05,26,02,31,11.90
2012,05,26,02,32,11.90
2012,05,26,02,33,11.90
2012,05,26,02,34,11.90
2012,05,26,02,35,11.90
2012,05,26,02,36,11.90
2012,05,26,02,37,11.90
2012,05,26,02,38,11.90
2012,05,26,02,39,11.90
2012,05,26,02,40,11.90
2012,05,26,02,41,11.90
2012,05,26,02,42,11.90
2012,05,26,02,43,11.90
2012,05,26,02,44,11.90
2012,05,26,02,45,11.90
2012,05,26,02,46,11.90
2012,05,26,02,47,11.90
2012,05,26,02,48,11.90
2012,05,26,02,49,11.80
2012,05,26,02,50,11.80
2012,05,26,02,51,11.80
2012,05,26,02,52,11.80
2012,05,26,02,53,11.80
2012,05,26,02,54,11.80
2012,05,26,02,55,11.80
2012,05,26,02,56,11.80
2012,05,26,02,57,11.80
2012,05,26,02,58,11.80
2012,05,26,02,59,11.80
2012,05,26,03,00,11.80
2012,05,26,03,01,11.80
2012,05,26,03,02,11.70
2012,05,26,03,03,11.70
2012,05,26,03,04,11.70
2012,05,26,03,05,11.70
2012,05,26,03,06,11.70
2012,05,26,03,07,11.70
2012,05,26,03,08,11.60
2012,05,26,03,09,11.60
2012,05,26,03,10,11.60
2012,05,26,03,11,11.60
2012,05,26,03,12,11.60
2012,05,26,03,13,11.60
2012,05,26,03,14,11.60
2012,05,26,03,15,11.60
2012,05,26,03,16,11.60
2012,05,26,03,17,11.60
2012,05,26,03,18,11.60
2012,05,26,03,19,11.60
2012,05,26,03,20,11.50
2012,05,26,03,21,11.50
2012,05,26,03,22,11.50
2012,05,26,03,23,11.50
2012,05,26,03,24,11.50
2012,05,26,03,25,11.50
2012,05,26,03,26,11.50
2012,05,26,03,27,11.50
2012,05,26,03,28,11.50
2012,05,26,03,29,11.50
2012,05,26,03,30,11.50
2012,05,26,03,31,11.60
2012,05,26,03,32,11.50
2012,05,26,03,33,11.50
2012,05,26,03,34,11.50
2012,05,26,03,35,11.50
2012,05,26,03,36,11.50
2012,05,26,03,37,11.40
2012,05,26,03,38,11.40
2012,05,26,03,39,11.40
2012,05,26,03,40,11.40
2012,05,26,03,41,11.40
2012,05,26,03,42,11.40
2012,05,26,03,43,11.40
2012,05,26,03,44,11.40
2012,05,26,03,45,11.40
2012,05,26,03,46,11.40
2012,05,26,03,47,11.40
2012,05,26,03,48,11.40
2012,05,26,03,49,11.40
2012,05,26,03,50,11.40
2012,05,26,03,51,11.40
2012,05,26,03,52,11.40
2012,05,26,03,53,11.40
2012,05,26,03,54,11.50
2012,05,26,03,55,11.50
2012,05,26,03,56,11.50
2012,05,26,03,57,11.40
2012,05,26,03,58,11.40
2012,05,26,03,59,11.40
2012,05,26,04,00,11.40
2012,05,26,04,01,11.40
2012,05,26,04,02,11.40
2012,05,26,04,03,11.40
2012,05,26,04,04,11.40
2012,05,26,04,05,11.40
2012,05,26,04,06,11.40
2012,05,26,04,07,11.40
2012,05,26,04,08,11.40
2012,05,26,04,09,11.40
2012,05,26,04,10,11.40
2012,05,26,04,11,11.40
2012,05,26,04,12,11.40
2012,05,26,04,13,11.30
2012,05,26,04,14,11.30
2012,05,26,04,15,11.30
2012,05,26,04,16,11.30
2012,05,26,04,17,11.30
2012,05,26,04,18,11.30
2012,05,26,04,19,11.30
2012,05,26,04,20,11.30
2012,05,26,04,21,11.30
2012,05,26,04,22,11.30
2012,05,26,04,23,11.30
2012,05,26,04,24,11.20
2012,05,26,04,25,11.20
2012,05,26,04,26,11.20
2012,05,26,04,27,11.20
2012,05,26,04,28,11.20
2012,05,26,04,29,11.20
2012,05,26,04,30,11.20
2012,05,26,04,31,11.20
2012,05,26,04,32,11.20
2012,05,26,04,33,11.20
2012,05,26,04,34,11.20
2012,05,26,04,35,11.20
2012,05,26,04,36,11.20
2012,05,26,04,37,11.20
2012,05,26,04,38,11.10
2012,05,26,04,39,11.10
2012,05,26,04,40,11.20
2012,05,26,04,41,11.20
2012,05,26,04,42,11.20
2012,05,26,04,43,11.20
2012,05,26,04,44,11.20
2012,05,26,04,45,11.20
2012,05,26,04,46,11.20
2012,05,26,04,47,11.20
2012,05,26,04,48,11.20
2012,05,26,04,49,11.20
2012,05,26,04,50,11.20
2012,05,26,04,51,11.10
2012,05,26,04,52,11.10
2012,05,26,04,53,11.10
2012,05,26,04,54,11.10
2012,05,26,04,55,11.00
2012,05,26,04,56,11.00
2012,05,26,04,57,11.00
2012,05,26,04,58,10.90
2012,05,26,04,59,10.90
2012,05,26,05,00,10.90
2012,05,26,05,01,10.90
2012,05,26,05,02,10.90
2012,05,26,05,03,10.90
2012,05,26,05,04,10.90
2012,05,26,05,05,10.80
2012,05,26,05,06,10.80
2012,05,26,05,07,10.80
2012,05,26,05,08,10.80
2012,05,26,05,09,10.80
2012,05,26,05,10,10.80
2012,05,26,05,11,10.80
2012,05,26,05,12,10.80
2012,05,26,05,13,10.80
2012,05,26,05,14,10.80
2012,05,26,05,15,10.80
2012,05,26,05,16,10.80
2012,05,26,05,17,10.80
2012,05,26,05,18,10.70
2012,05,26,05,19,10.80
2012,05,26,05,20,10.80
2012,05,26,05,21,10.80
2012,05,26,05,22,10.80
2012,05,26,05,23,10.80
2012,05,26,05,24,10.80
2012,05,26,05,25,10.80
2012,05,26,05,26,10.80
2012,05,26,05,27,10.80
2012,05,26,05,28,10.80
2012,05,26,05,29,10.80
2012,05,26,05,30,10.80
2012,05,26,05,31,10.80
2012,05,26,05,32,10.80
2012,05,26,05,33,10.80
2012,05,26,05,34,10.70
2012,05,26,05,35,10.70
2012,05,26,05,36,10.70
2012,05,26,05,37,10.70
2012,05,26,05,38,10.60
2012,05,26,05,39,10.60
2012,05,26,05,40,10.60
2012,05,26,05,41,10.60
2012,05,26,05,42,10.60
2012,05,26,05,43,10.70
2012,05,26,05,44,10.70
2012,05,26,05,45,10.70
2012,05,26,05,46,10.70
2012,05,26,05,47,10.70
2012,05,26,05,48,10.70
2012,05,26,05,49,10.70
2012,05,26,05,50,10.80
2012,05,26,05,51,10.80
2012,05,26,05,52,10.80
2012,05,26,05,53,10.80
2012,05,26,05,54,10.80
2012,05,26,05,55,10.80
2012,05,26,05,56,10.80
2012,05,26,05,57,10.80
2012,05,26,05,58,10.80
2012,05,26,05,59,10.80
2012,05,26,06,00,10.80
2012,05,26,06,01,10.70
2012,05,26,06,02,10.70
2012,05,26,06,03,10.70
2012,05,26,06,04,10.70
2012,05,26,06,05,10.70
2012,05,26,06,06,10.80
2012,05,26,06,07,10.80
2012,05,26,06,08,10.80
2012,05,26,06,09,10.80
2012,05,26,06,10,10.90
2012,05,26,06,11,10.90
2012,05,26,06,12,11.00
2012,05,26,06,13,11.00
2012,05,26,06,14,11.00
2012,05,26,06,15,11.00
2012,05,26,06,16,11.10
2012,05,26,06,17,11.10
2012,05,26,06,18,11.10
2012,05,26,06,19,11.10
2012,05,26,06,20,11.20
2012,05,26,06,21,11.20
2012,05,26,06,22,11.20
2012,05,26,06,23,11.20
2012,05,26,06,24,11.20
2012,05,26,06,25,11.30
2012,05,26,06,26,11.30
2012,05,26,06,27,11.30
2012,05,26,06,28,11.30
2012,05,26,06,29,11.40
2012,05,26,06,30,11.40
2012,05,26,06,31,11.40
2012,05,26,06,32,11.50
2012,05,26,06,33,11.50
2012,05,26,06,34,11.50
2012,05,26,06,35,11.50
2012,05,26,06,36,11.60
2012,05,26,06,37,11.60
2012,05,26,06,38,11.60
2012,05,26,06,39,11.70
2012,05,26,06,40,11.70
2012,05,26,06,41,11.70
2012,05,26,06,42,11.80
2012,05,26,06,43,11.80
2012,05,26,06,44,11.90
2012,05,26,06,45,11.90
2012,05,26,06,46,12.00
2012,05,26,06,47,12.00
2012,05,26,06,48,12.10
2012,05,26,06,49,12.10
2012,05,26,06,50,12.20
2012,05,26,06,51,12.20
2012,05,26,06,52,12.20
2012,05,26,06,53,12.30
2012,05,26,06,54,12.30
2012,05,26,06,55,12.30
2012,05,26,06,56,12.40
2012,05,26,06,57,12.40
2012,05,26,06,58,12.50
2012,05,26,06,59,12.50
2012,05,26,07,00,12.60
2012,05,26,07,01,12.60
2012,05,26,07,02,12.70
2012,05,26,07,03,12.70
2012,05,26,07,04,12.80
2012,05,26,07,05,12.80
2012,05,26,07,06,12.80
2012,05,26,07,07,12.90
2012,05,26,07,08,13.00
2012,05,26,07,09,13.00
2012,05,26,07,10,13.10
2012,05,26,07,11,13.10
2012,05,26,07,12,13.20
2012,05,26,07,13,13.20
2012,05,26,07,14,13.30
2012,05,26,07,15,13.40
2012,05,26,07,16,13.50
2012,05,26,07,17,13.60
2012,05,26,07,18,13.60
2012,05,26,07,19,13.70
2012,05,26,07,20,13.80
2012,05,26,07,21,13.80
2012,05,26,07,22,13.80
2012,05,26,07,23,13.90
2012,05,26,07,24,14.00
2012,05,26,07,25,14.00
2012,05,26,07,26,14.20
2012,05,26,07,27,14.30
2012,05,26,07,28,14.40
2012,05,26,07,29,14.60
2012,05,26,07,30,14.70
2012,05,26,07,31,14.80
2012,05,26,07,32,14.90
2012,05,26,07,33,15.00
2012,05,26,07,34,15.10
2012,05,26,07,35,15.20
2012,05,26,07,36,15.30
2012,05,26,07,37,15.40
2012,05,26,07,38,15.50
2012,05,26,07,39,15.60
2012,05,26,07,40,15.70
2012,05,26,07,41,15.80
2012,05,26,07,42,15.80
2012,05,26,07,43,15.90
2012,05,26,07,44,15.90
2012,05,26,07,45,16.00
2012,05,26,07,46,16.00
2012,05,26,07,47,16.10
2012,05,26,07,48,16.10
2012,05,26,07,49,16.20
2012,05,26,07,50,16.30
2012,05,26,07,51,16.30
2012,05,26,07,52,16.40
2012,05,26,07,53,16.40
2012,05,26,07,54,16.40
2012,05,26,07,55,16.40
2012,05,26,07,56,16.40
2012,05,26,07,57,16.40
2012,05,26,07,58,16.40
2012,05,26,07,59,16.40
2012,05,26,08,00,16.40
2012,05,26,08,01,16.40
2012,05,26,08,02,16.40
2012,05,26,08,03,16.40
2012,05,26,08,04,16.40
2012,05,26,08,05,16.40
2012,05,26,08,06,16.50
2012,05,26,08,07,16.60
2012,05,26,08,08,16.60
2012,05,26,08,09,16.60
2012,05,26,08,10,16.60
2012,05,26,08,11,16.70
2012,05,26,08,12,16.60
2012,05,26,08,13,16.60
2012,05,26,08,14,16.60
2012,05,26,08,15,16.60
2012,05,26,08,16,16.60
2012,05,26,08,17,16.60
2012,05,26,08,18,16.60
2012,05,26,08,19,16.50
2012,05,26,08,20,16.50
2012,05,26,08,21,16.40
2012,05,26,08,22,16.40
2012,05,26,08,23,16.40
2012,05,26,08,24,16.40
2012,05,26,08,25,16.50
2012,05,26,08,26,16.50
2012,05,26,08,27,16.40
2012,05,26,08,28,16.40
2012,05,26,08,29,16.40
2012,05,26,08,30,16.40
2012,05,26,08,31,16.30
2012,05,26,08,32,16.30
2012,05,26,08,33,16.20
2012,05,26,08,34,16.20
2012,05,26,08,35,16.20
2012,05,26,08,36,16.20
2012,05,26,08,37,16.10
2012,05,26,08,38,16.10
2012,05,26,08,39,16.10
2012,05,26,08,40,16.20
2012,05,26,08,41,16.20
2012,05,26,08,42,16.20
2012,05,26,08,43,16.20
2012,05,26,08,44,16.20
2012,05,26,08,45,16.30
2012,05,26,08,46,16.30
2012,05,26,08,47,16.40
2012,05,26,08,48,16.40
2012,05,26,08,49,16.50
2012,05,26,08,50,16.50
2012,05,26,08,51,16.50
2012,05,26,08,52,16.60
2012,05,26,08,53,16.70
2012,05,26,08,54,16.70
2012,05,26,08,55,16.70
2012,05,26,08,56,16.70
2012,05,26,08,57,16.80
2012,05,26,08,58,16.80
2012,05,26,08,59,16.90
2012,05,26,09,00,16.90
2012,05,26,09,01,17.00
2012,05,26,09,02,17.00
2012,05,26,09,03,17.00
2012,05,26,09,04,17.00
2012,05,26,09,05,17.00
2012,05,26,09,06,17.00
2012,05,26,09,07,17.10
2012,05,26,09,08,17.10
2012,05,26,09,09,17.20
2012,05,26,09,10,17.30
2012,05,26,09,11,17.40
2012,05,26,09,12,17.40
2012,05,26,09,13,17.40
2012,05,26,09,14,17.40
2012,05,26,09,15,17.30
2012,05,26,09,16,17.20
2012,05,26,09,17,17.10
2012,05,26,09,18,17.10
2012,05,26,09,19,17.10
2012,05,26,09,20,17.10
2012,05,26,09,21,17.20
2012,05,26,09,22,17.20
2012,05,26,09,23,17.20
2012,05,26,09,24,17.20
2012,05,26,09,25,17.10
2012,05,26,09,26,17.00
2012,05,26,09,27,17.00
2012,05,26,09,28,16.90
2012,05,26,09,29,16.90
2012,05,26,09,30,16.80
2012,05,26,09,31,16.80
2012,05,26,09,32,16.80
2012,05,26,09,33,16.70
2012,05,26,09,34,16.70
2012,05,26,09,35,16.60
2012,05,26,09,36,16.70
2012,05,26,09,37,16.70
2012,05,26,09,38,16.80
2012,05,26,09,39,16.80
2012,05,26,09,40,16.80
2012,05,26,09,41,16.80
2012,05,26,09,42,16.90
2012,05,26,09,43,16.90
2012,05,26,09,44,16.90
2012,05,26,09,45,16.90
2012,05,26,09,46,16.90
2012,05,26,09,47,16.90
2012,05,26,09,48,16.90
2012,05,26,09,49,16.90
2012,05,26,09,50,16.90
2012,05,26,09,51,16.80
2012,05,26,09,52,16.80
2012,05,26,09,53,16.80
2012,05,26,09,54,16.80
2012,05,26,09,55,16.80
2012,05,26,09,56,16.70
2012,05,26,09,57,16.70
2012,05,26,09,58,16.70
2012,05,26,09,59,16.70
2012,05,26,10,00,16.60
2012,05,26,10,01,16.60
2012,05,26,10,02,16.60
2012,05,26,10,03,16.60
2012,05,26,10,04,16.60
2012,05,26,10,05,16.50
2012,05,26,10,06,16.60
2012,05,26,10,07,16.60
2012,05,26,10,08,16.60
2012,05,26,10,09,16.60
2012,05,26,10,10,16.70
2012,05,26,10,11,16.80
2012,05,26,10,12,16.90
2012,05,26,10,13,17.00
2012,05,26,10,14,17.10
2012,05,26,10,15,17.20
2012,05,26,10,16,17.30
2012,05,26,10,17,17.30
2012,05,26,10,18,17.40
2012,05,26,10,19,17.40
2012,05,26,10,20,17.40
2012,05,26,10,21,17.40
2012,05,26,10,22,17.40
2012,05,26,10,23,17.40
2012,05,26,10,24,17.40
2012,05,26,10,25,17.40
2012,05,26,10,26,17.40
2012,05,26,10,27,17.40
2012,05,26,10,28,17.50
2012,05,26,10,29,17.50
2012,05,26,10,30,17.60
2012,05,26,10,31,17.60
2012,05,26,10,32,17.70
2012,05,26,10,33,17.70
2012,05,26,10,34,17.70
2012,05,26,10,35,17.80
2012,05,26,10,36,17.80
2012,05,26,10,37,17.80
2012,05,26,10,38,17.80
2012,05,26,10,39,17.90
2012,05,26,10,40,17.90
2012,05,26,10,41,17.90
2012,05,26,10,42,17.90
2012,05,26,10,43,17.90
2012,05,26,10,44,17.90
2012,05,26,10,45,17.90
2012,05,26,10,46,17.90
2012,05,26,10,47,17.90
2012,05,26,10,48,17.90
2012,05,26,10,49,17.90
2012,05,26,10,50,17.90
2012,05,26,10,51,17.90
2012,05,26,10,52,17.90
2012,05,26,10,53,18.00
2012,05,26,10,54,18.00
2012,05,26,10,55,18.00
2012,05,26,10,56,18.10
2012,05,26,10,57,18.10
2012,05,26,10,58,18.10
2012,05,26,10,59,18.00
2012,05,26,11,00,18.00
2012,05,26,11,01,18.00
2012,05,26,11,02,18.00
2012,05,26,11,03,18.10
2012,05,26,11,04,18.10
2012,05,26,11,05,18.00
2012,05,26,11,06,18.00
2012,05,26,11,07,18.10
2012,05,26,11,08,18.20
2012,05,26,11,09,18.20
2012,05,26,11,10,18.30
2012,05,26,11,11,18.40
2012,05,26,11,12,18.40
2012,05,26,11,13,18.50
2012,05,26,11,14,18.50
2012,05,26,11,15,18.60
2012,05,26,11,16,18.60
2012,05,26,11,17,18.60
2012,05,26,11,18,18.60
2012,05,26,11,19,18.70
2012,05,26,11,20,18.70
2012,05,26,11,21,18.70
2012,05,26,11,22,18.80
2012,05,26,11,23,18.90
2012,05,26,11,24,18.90
2012,05,26,11,25,18.90
2012,05,26,11,26,18.90
2012,05,26,11,27,18.90
2012,05,26,11,28,18.90
2012,05,26,11,29,18.90
2012,05,26,11,30,18.80
2012,05,26,11,31,18.70
2012,05,26,11,32,18.60
2012,05,26,11,33,18.60
2012,05,26,11,34,18.60
2012,05,26,11,35,18.60
2012,05,26,11,36,18.70
2012,05,26,11,37,18.80
2012,05,26,11,38,18.90
2012,05,26,11,39,19.20
2012,05,26,11,40,19.40
2012,05,26,11,41,19.60
2012,05,26,11,42,19.80
2012,05,26,11,43,19.80
2012,05,26,11,44,19.90
2012,05,26,11,45,19.90
2012,05,26,11,46,19.90
2012,05,26,11,47,20.00
2012,05,26,11,48,20.00
2012,05,26,11,49,19.90
2012,05,26,11,50,19.90
2012,05,26,11,51,20.00
2012,05,26,11,52,20.00
2012,05,26,11,53,20.10
2012,05,26,11,54,20.10
2012,05,26,11,55,20.20
2012,05,26,11,56,20.20
2012,05,26,11,57,20.20
2012,05,26,11,58,20.00
2012,05,26,11,59,19.90
2012,05,26,12,00,19.80
2012,05,26,12,01,19.80
2012,05,26,12,02,19.70
2012,05,26,12,03,19.60
2012,05,26,12,04,19.50
2012,05,26,12,05,19.40
2012,05,26,12,06,19.20
2012,05,26,12,07,19.10
2012,05,26,12,08,19.10
2012,05,26,12,09,19.00
2012,05,26,12,10,19.00
2012,05,26,12,11,18.90
2012,05,26,12,12,19.00
2012,05,26,12,13,19.00
2012,05,26,12,14,19.10
2012,05,26,12,15,19.00
2012,05,26,12,16,19.00
2012,05,26,12,17,19.10
2012,05,26,12,18,19.10
2012,05,26,12,19,19.10
2012,05,26,12,20,19.20
2012,05,26,12,21,19.20
2012,05,26,12,22,19.20
2012,05,26,12,23,19.10
2012,05,26,12,24,19.10
2012,05,26,12,25,19.00
2012,05,26,12,26,19.00
2012,05,26,12,27,18.90
2012,05,26,12,28,19.00
2012,05,26,12,29,19.00
2012,05,26,12,30,18.90
2012,05,26,12,31,18.90
2012,05,26,12,32,18.90
2012,05,26,12,33,19.00
2012,05,26,12,34,18.90
2012,05,26,12,35,18.90
2012,05,26,12,36,18.90
2012,05,26,12,37,18.90
2012,05,26,12,38,18.90
2012,05,26,12,39,19.00
2012,05,26,12,40,19.00
2012,05,26,12,41,19.00
2012,05,26,12,42,19.00
2012,05,26,12,43,18.90
2012,05,26,12,44,18.90
2012,05,26,12,45,19.00
2012,05,26,12,46,19.00
2012,05,26,12,47,19.10
2012,05,26,12,48,19.20
2012,05,26,12,49,19.20
2012,05,26,12,50,19.20
2012,05,26,12,51,19.30
2012,05,26,12,52,19.30
2012,05,26,12,53,19.40
2012,05,26,12,54,19.50
2012,05,26,12,55,19.60
2012,05,26,12,56,19.70
2012,05,26,12,57,19.80
2012,05,26,12,58,19.90
2012,05,26,12,59,19.90
2012,05,26,13,00,19.80
2012,05,26,13,01,19.80
2012,05,26,13,02,19.80
2012,05,26,13,03,19.80
2012,05,26,13,04,19.80
2012,05,26,13,05,19.70
2012,05,26,13,06,19.70
2012,05,26,13,07,19.60
2012,05,26,13,08,19.60
2012,05,26,13,09,19.50
2012,05,26,13,10,19.60
2012,05,26,13,11,19.70
2012,05,26,13,12,19.80
2012,05,26,13,13,19.90
2012,05,26,13,14,20.00
2012,05,26,13,15,20.10
2012,05,26,13,16,20.10
2012,05,26,13,17,20.10
2012,05,26,13,18,20.10
2012,05,26,13,19,20.10
2012,05,26,13,20,20.10
2012,05,26,13,21,20.10
2012,05,26,13,22,20.10
2012,05,26,13,23,20.00
2012,05,26,13,24,20.00
2012,05,26,13,25,20.00
2012,05,26,13,26,20.00
2012,05,26,13,27,20.00
2012,05,26,13,28,20.00
2012,05,26,13,29,20.10
2012,05,26,13,30,20.30
2012,05,26,13,31,20.40
2012,05,26,13,32,20.60
2012,05,26,13,33,20.70
2012,05,26,13,34,20.80
2012,05,26,13,35,21.00
2012,05,26,13,36,21.10
2012,05,26,13,37,21.20
2012,05,26,13,38,21.20
2012,05,26,13,39,21.40
2012,05,26,13,40,21.40
2012,05,26,13,41,21.40
2012,05,26,13,42,21.40
2012,05,26,13,43,21.40
2012,05,26,13,44,21.30
2012,05,26,13,45,21.20
2012,05,26,13,46,21.10
2012,05,26,13,47,21.10
2012,05,26,13,48,21.00
2012,05,26,13,49,21.00
2012,05,26,13,50,21.10
2012,05,26,13,51,21.10
2012,05,26,13,52,21.10
2012,05,26,13,53,21.10
2012,05,26,13,54,21.10
2012,05,26,13,55,21.10
2012,05,26,13,56,21.20
2012,05,26,13,57,21.30
2012,05,26,13,58,21.40
2012,05,26,13,59,21.60
2012,05,26,14,00,21.80
2012,05,26,14,01,21.90
2012,05,26,14,02,22.00
2012,05,26,14,03,22.10
2012,05,26,14,04,22.00
2012,05,26,14,05,21.90
2012,05,26,14,06,21.90
2012,05,26,14,07,21.90
2012,05,26,14,08,21.90
2012,05,26,14,09,21.90
2012,05,26,14,10,21.90
2012,05,26,14,11,21.80
2012,05,26,14,12,21.70
2012,05,26,14,13,21.50
2012,05,26,14,14,21.40
2012,05,26,14,15,21.40
2012,05,26,14,16,21.30
2012,05,26,14,17,21.10
2012,05,26,14,18,21.00
2012,05,26,14,19,20.80
2012,05,26,14,20,20.70
2012,05,26,14,21,20.60
2012,05,26,14,22,20.50
2012,05,26,14,23,20.50
2012,05,26,14,24,20.40
2012,05,26,14,25,20.40
2012,05,26,14,26,20.40
2012,05,26,14,27,20.40
2012,05,26,14,28,20.40
2012,05,26,14,29,20.40
2012,05,26,14,30,20.50
2012,05,26,14,31,20.60
2012,05,26,14,32,20.60
2012,05,26,14,33,20.60
2012,05,26,14,34,20.60
2012,05,26,14,35,20.60
2012,05,26,14,36,20.70
2012,05,26,14,37,20.70
2012,05,26,14,38,20.70
2012,05,26,14,39,20.70
2012,05,26,14,40,20.70
2012,05,26,14,41,20.70
2012,05,26,14,42,20.70
2012,05,26,14,43,20.80
2012,05,26,14,44,20.80
2012,05,26,14,45,20.80
2012,05,26,14,46,20.80
2012,05,26,14,47,20.90
2012,05,26,14,48,20.90
2012,05,26,14,49,21.00
2012,05,26,14,50,21.10
2012,05,26,14,51,21.20
2012,05,26,14,52,21.30
2012,05,26,14,53,21.50
2012,05,26,14,54,21.60
2012,05,26,14,55,21.60
2012,05,26,14,56,21.60
2012,05,26,14,57,21.60
2012,05,26,14,58,21.70
2012,05,26,14,59,21.80
2012,05,26,15,00,21.90
2012,05,26,15,01,21.90
2012,05,26,15,02,21.80
2012,05,26,15,03,21.90
2012,05,26,15,04,21.90
2012,05,26,15,05,21.90
2012,05,26,15,06,21.90
2012,05,26,15,07,21.90
2012,05,26,15,08,21.80
2012,05,26,15,09,21.80
2012,05,26,15,10,21.80
2012,05,26,15,11,21.70
2012,05,26,15,12,21.70
2012,05,26,15,13,21.70
2012,05,26,15,14,21.60
2012,05,26,15,15,21.50
2012,05,26,15,16,21.40
2012,05,26,15,17,21.30
2012,05,26,15,18,21.20
2012,05,26,15,19,21.10
2012,05,26,15,20,21.00
2012,05,26,15,21,20.90
2012,05,26,15,22,20.90
2012,05,26,15,23,20.80
2012,05,26,15,24,20.80
2012,05,26,15,25,20.70
2012,05,26,15,26,20.70
2012,05,26,15,27,20.70
2012,05,26,15,28,20.60
2012,05,26,15,29,20.50
2012,05,26,15,30,20.40
2012,05,26,15,31,20.40
2012,05,26,15,32,20.40
2012,05,26,15,33,20.40
2012,05,26,15,34,20.40
2012,05,26,15,35,20.40
2012,05,26,15,36,20.50
2012,05,26,15,37,20.60
2012,05,26,15,38,20.70
2012,05,26,15,39,20.80
2012,05,26,15,40,20.90
2012,05,26,15,41,21.00
2012,05,26,15,42,21.10
2012,05,26,15,43,21.20
2012,05,26,15,44,21.30
2012,05,26,15,45,21.30
2012,05,26,15,46,21.40
2012,05,26,15,47,21.50
2012,05,26,15,48,21.60
2012,05,26,15,49,21.60
2012,05,26,15,50,21.70
2012,05,26,15,51,21.90
2012,05,26,15,52,22.00
2012,05,26,15,53,22.20
2012,05,26,15,54,22.30
2012,05,26,15,55,22.50
2012,05,26,15,56,22.50
2012,05,26,15,57,22.60
2012,05,26,15,58,22.60
2012,05,26,15,59,22.60
2012,05,26,16,00,22.60
2012,05,26,16,01,22.60
2012,05,26,16,02,22.70
2012,05,26,16,03,22.70
2012,05,26,16,04,22.80
2012,05,26,16,05,22.90
2012,05,26,16,06,23.00
2012,05,26,16,07,23.10
2012,05,26,16,08,23.20
2012,05,26,16,09,23.20
2012,05,26,16,10,23.20
2012,05,26,16,11,23.20
2012,05,26,16,12,23.20
2012,05,26,16,13,23.20
2012,05,26,16,14,23.10
2012,05,26,16,15,23.10
2012,05,26,16,16,23.10
2012,05,26,16,17,23.10
2012,05,26,16,18,23.00
2012,05,26,16,19,23.00
2012,05,26,16,20,23.00
2012,05,26,16,21,23.00
2012,05,26,16,22,23.00
2012,05,26,16,23,23.00
2012,05,26,16,24,22.90
2012,05,26,16,25,22.90
2012,05,26,16,26,22.90
2012,05,26,16,27,22.90
2012,05,26,16,28,22.90
2012,05,26,16,29,22.90
2012,05,26,16,30,22.90
2012,05,26,16,31,22.90
2012,05,26,16,32,22.90
2012,05,26,16,33,22.90
2012,05,26,16,34,23.00
2012,05,26,16,35,23.00
2012,05,26,16,36,23.10
2012,05,26,16,37,23.10
2012,05,26,16,38,23.20
2012,05,26,16,39,23.20
2012,05,26,16,40,23.30
2012,05,26,16,41,23.30
2012,05,26,16,42,23.30
2012,05,26,16,43,23.40
2012,05,26,16,44,23.50
2012,05,26,16,45,23.60
2012,05,26,16,46,23.70
2012,05,26,16,47,23.70
2012,05,26,16,48,23.70
2012,05,26,16,49,23.80
2012,05,26,16,50,23.90
2012,05,26,16,51,24.00
2012,05,26,16,52,24.10
2012,05,26,16,53,24.10
2012,05,26,16,54,24.00
2012,05,26,16,55,24.00
2012,05,26,16,56,24.00
2012,05,26,16,57,24.00
2012,05,26,16,58,24.00
2012,05,26,16,59,24.00
2012,05,26,17,00,24.10
2012,05,26,17,01,24.10
2012,05,26,17,02,24.10
2012,05,26,17,03,24.10
2012,05,26,17,04,24.20
2012,05,26,17,05,24.20
2012,05,26,17,06,24.30
2012,05,26,17,07,24.30
2012,05,26,17,08,24.30
2012,05,26,17,09,24.30
2012,05,26,17,10,24.30
2012,05,26,17,11,24.30
2012,05,26,17,12,24.30
2012,05,26,17,13,24.30
2012,05,26,17,14,24.30
2012,05,26,17,15,24.20
2012,05,26,17,16,24.20
2012,05,26,17,17,24.20
2012,05,26,17,18,24.20
2012,05,26,17,19,24.20
2012,05,26,17,20,24.30
2012,05,26,17,21,24.30
2012,05,26,17,22,24.30
2012,05,26,17,23,24.30